Tracking 31011 objects as of 13-Jul-2025
HD Live streaming from Space Station
objects crossing your sky now

STARLINK-31582

Track STARLINK-31582 now!
10-day predictions
STARLINK-31582 is classified as:


NORAD ID: 59545
Int'l Code: 2024-074M
Perigee: 489.7 km
Apogee: 490.7 km
Inclination: 43.0 °
Period: 94.3 minutes
Semi major axis: 6861 km
RCS: Unknown
Launch date: April 18, 2024
Source: United States (US)
Launch site: AIR FORCE EASTERN TEST RANGE (AFETR)
Your satellite tracking list
Your tracking list is empty




NASA's NSSDC Master Catalog

Two Line Element Set (TLE):
1 59545U 24074M   25193.87169341  .00000497  00000-0  27577-4 0  9996
2 59545  43.0008 258.1985 0000759 281.9777  78.0990 15.27577801 69332
Source of the keplerian elements: AFSPC